Temperature
22 23 24 25 25 25 23 22 22 22 22 22 22 22 23 23 24 24 24 24 23 23 23 23 22 22 22 22 22 21 21 21 20 20 20 19 19 18 18 18 18 17 17 17
22 24 24 24 25 25 25 24 23 23 23 22 23 23 23 23 23 23 23 23 23 23 23 23 22 22 22 22 22 21 21 21 20 20 19 19 18 18 18 18 18 17 17 17
20 22 23 23 24 24 24 24 23 22 22 22 21 21 22 23 23 23 23 23 23 23 23 23 23 22 22 21 21 21 20 20 20 19 19 19 18 18 18 18 17 17 17 17
18 21 22 22 23 25 24 23 23 22 22 22 22 23 23 24 23 23 23 23 23 23 23 23 22 22 21 21 21 20 20 20 19 19 19 19 18 18 18 18 17 17 17 17
17 19 20 22 23 24 23 22 22 22 21 22 22 22 22 23 23 23 23 23 23 23 23 22 22 22 21 21 20 20 20 20 19 19 19 18 18 18 18 18 17 17 17 17
17 19 20 20 23 24 23 21 21 21 20 21 21 19 20 22 23 23 23 23 22 22 22 22 22 21 21 20 20 20 20 19 19 19 19 18 18 18 18 17 17 17 16 16
17 18 18 20 22 23 21 19 21 21 21 21 20 20 22 22 23 23 22 22 22 22 22 22 21 21 20 20 20 20 19 19 19 19 18 18 18 18 17 17 17 16 16 16
16 17 18 20 21 19 19 20 21 21 21 21 21 22 22 22 22 22 22 22 22 21 21 21 21 20 20 20 19 19 19 19 18 18 18 18 18 17 17 17 16 16 16 16
16 16 18 20 20 20 21 20 20 21 21 21 21 21 21 21 21 21 21 21 21 21 20 20 20 20 20 19 19 19 18 18 18 18 18 18 17 17 17 16 16 16 16 16
15 17 18 19 20 20 20 20 20 21 21 21 21 21 21 21 21 21 21 20 20 20 20 19 19 19 19 19 19 18 18 18 18 18 17 17 17 17 16 16 16 16 16 16
14 15 17 18 19 19 19 20 20 20 21 21 20 20 20 20 20 20 20 20 20 19 19 19 18 18 18 18 18 18 18 18 17 17 17 17 17 16 16 16 16 16 16 16
14 16 15 17 18 18 18 19 19 19 20 20 20 20 20 19 19 19 19 19 19 19 18 18 18 18 18 18 18 18 17 17 17 17 17 16 16 16 16 16 15 15 15 15
17 17 17 17 17 18 18 18 18 19 19 19 19 19 19 19 19 19 19 19 18 18 18 18 17 17 17 17 17 17 17 17 17 16 16 16 16 16 15 15 15 15 15 15
17 17 16 17 17 17 17 17 18 18 18 19 19 19 18 18 18 18 18 18 18 18 17 17 17 17 17 17 16 16 16 16 16 16 16 16 15 15 15 15 15 15 15 15
16 16 16 16 17 17 17 17 17 17 17 17 18 18 18 18 17 17 17 17 17 17 17 17 17 17 16 16 16 16 16 16 16 16 16 15 15 15 15 15 15 15 15 15
16 16 16 16 16 16 16 16 16 16 16 16 17 17 17 17 17 17 17 16 16 16 16 16 16 16 16 16 15 15 15 15 15 15 15 15 15 15 15 15 15 14 14 14
15 15 15 15 15 15 15 15 15 15 16 16 16 16 16 16 16 16 16 16 16 16 16 16 16 15 15 15 15 15 15 15 15 15 15 15 14 14 14 14 14 14 14 14
15 14 14 14 14 14 15 15 15 15 15 15 15 15 15 15 15 15 15 15 15 15 15 15 15 15 15 14 14 14 14 14 14 14 14 14 14 14 14 14 14 14 14 14
14 14 14 14 14 14 14 14 14 14 14 15 15 15 15 15 15 15 15 15 15 15 15 15 14 14 14 14 14 14 14 14 14 14 14 14 14 14 14 13 13 13 13 13
13 14 14 13 14 14 14 14 14 14 14 14 14 14 14 14 14 14 14 14 14 14 14 14 14 14 14 13 13 13 13 13 13 13 13 13 13 13 13 13 13 13 13 13
13 13 13 13 13 13 13 13 13 14 14 14 14 14 14 14 14 14 14 14 14 14 14 14 13 13 13 13 13 13 13 13 13 13 13 13 13 13 12 12 12 12 12 12
12 12 12 13 13 13 13 13 13 13 13 13 14 14 13 13 13 13 13 14 14 14 13 13 13 13 13 13 13 13 13 13 13 13 13 13 12 12 12 12 12 12 12 12
12 12 12 12 12 12 12 13 13 13 13 13 13 13 13 13 13 13 13 13 13 13 13 13 13 13 13 13 13 12 12 12 12 12 12 12 12 12 12 12 11 11 11 11
11 12 12 12 12 12 12 12 12 12 12 13 13 13 13 13 13 13 13 13 13 13 13 13 13 13 12 12 12 12 12 12 12 12 12 12 12 11 11 11 11 11 11 11
11 11 11 11 11 11 11 11 12 12 12 12 12 12 12 12 12 12 12 12 12 12 12 12 12 12 12 12 12 12 12 12 12 12 12 11 11 11 11 11 11 11 11 11
11 11 11 11 11 11 11 11 11 11 11 11 12 12 12 12 12 12 12 12 12 12 12 12 12 12 12 12 12 12 12 11 11 11 11 11 11 11 11 11 11 11 10 10
10 10 11 11 11 11 11 11 11 11 11 11 11 11 11 12 12 12 12 12 12 12 12 12 12 11 12 11 11 11 11 11 11 11 11 11 11 11 11 11 11 10 10 10
Wind_Speed
4 5 2 3 4 3 4 7 8 8 8 8 8 8 8 8 7 7 8 9 9 8 7 8 8 9 9 9 9 9 10 10 9 8 7 6 6 6 6 6 7 6 6 5
4 4 3 4 4 2 3 4 5 6 6 6 6 5 6 7 8 8 8 10 10 9 9 9 9 9 9 9 9 9 9 9 8 8 7 7 7 7 7 6 6 6 6 6
3 5 4 4 3 2 2 3 5 6 7 5 4 6 7 8 9 9 9 8 9 10 9 9 9 9 9 8 8 9 9 8 8 8 8 7 8 7 7 6 6 6 6 5
1 3 3 7 4 2 3 2 1 3 3 5 6 7 6 6 7 6 7 7 7 7 7 7 7 7 7 7 8 9 8 8 8 8 7 7 6 7 7 5 6 6 6 5
3 3 5 7 5 0 2 2 3 3 3 3 3 4 2 2 5 4 5 6 7 7 7 7 8 9 8 7 7 7 7 8 8 8 7 7 7 7 6 5 5 5 5 5
3 3 5 6 7 2 5 2 4 3 4 3 5 3 3 2 4 4 4 4 5 6 6 7 7 8 9 8 8 8 8 8 7 8 8 7 7 6 5 5 5 5 4 4
4 4 5 6 7 4 2 4 3 2 4 4 3 5 4 3 5 5 5 4 5 7 7 7 7 8 8 8 9 9 7 7 6 7 7 7 5 4 5 5 4 4 4 4
2 3 5 6 4 2 4 3 0 1 2 3 2 2 3 5 5 6 5 4 4 6 6 6 7 8 8 7 7 6 7 7 6 6 6 6 5 5 5 5 5 5 4 3
4 5 4 2 1 2 2 1 1 1 0 3 3 3 4 4 4 4 5 4 4 5 6 5 6 8 8 5 5 6 7 7 6 6 5 5 6 6 5 5 5 4 4 4
1 2 3 4 4 3 3 2 1 0 2 3 3 3 4 4 3 3 4 4 4 5 6 5 5 6 6 6 6 7 7 6 6 6 5 4 4 5 5 5 5 5 5 5
2 4 4 5 5 5 5 4 3 3 2 3 4 4 4 3 3 3 3 3 4 5 6 6 5 4 4 5 6 6 6 6 6 6 6 5 4 4 5 5 7 7 6 6
5 6 3 5 5 5 5 4 3 2 2 1 3 4 3 3 3 4 4 3 3 3 5 5 5 5 4 5 6 7 5 5 5 5 4 4 4 2 0 2 4 7 7 7
6 5 4 5 5 4 4 4 4 1 1 1 1 3 4 3 3 3 3 4 4 4 4 4 3 3 3 4 6 6 6 5 5 5 5 4 4 5 3 1 1 2 5 7
3 2 3 4 5 5 4 4 3 1 0 1 2 3 4 3 3 3 3 4 4 4 4 4 4 3 2 3 5 5 5 5 5 5 5 5 5 5 5 4 3 1 2 4
5 3 4 5 4 4 4 3 2 2 2 2 1 3 4 4 4 4 3 3 3 3 3 4 4 4 4 5 5 5 4 4 3 4 4 4 5 5 4 4 4 3 1 1
4 2 1 2 3 3 3 2 1 1 1 1 0 2 4 5 4 4 4 4 4 4 4 4 5 5 5 5 5 4 4 6 5 4 4 4 4 5 5 4 4 4 4 3
2 2 2 2 3 4 3 3 3 2 2 2 3 3 3 3 3 3 3 3 4 5 4 5 5 5 5 5 5 4 4 5 5 4 4 4 4 5 5 5 5 4 4 4
5 5 5 5 4 4 3 3 2 2 3 3 3 3 3 4 4 5 4 3 3 2 3 4 4 4 4 4 4 3 3 4 4 4 4 4 5 5 5 5 5 5 3 3
3 4 4 4 4 3 3 2 2 3 3 2 3 4 4 4 4 4 4 3 3 4 4 4 5 5 4 4 4 3 4 4 4 3 4 5 5 4 4 5 4 4 4 4
4 3 3 3 3 3 2 3 2 2 2 2 3 3 3 3 3 4 4 4 5 5 4 4 4 4 4 4 4 3 4 4 4 4 4 4 5 5 5 5 5 4 4 4
3 3 2 3 3 3 2 2 1 2 2 2 2 3 3 3 3 3 3 3 4 4 4 5 5 4 4 4 4 3 4 4 4 4 4 4 4 4 4 4 4 5 4 4
3 3 3 2 1 1 2 1 1 2 2 2 2 2 2 3 3 2 3 4 4 5 4 3 3 5 5 5 3 4 4 4 4 4 4 5 5 5 5 5 5 4 4 4
3 3 3 3 2 2 2 1 1 1 2 2 2 2 2 3 3 3 3 3 3 5 4 3 4 6 6 4 3 4 4 4 4 4 4 5 5 5 5 5 5 5 4 4
3 4 3 2 2 1 2 3 2 2 1 0 1 1 2 2 2 2 3 3 4 4 3 4 6 7 7 4 4 4 4 4 4 4 4 4 4 4 5 5 5 4 4 5
3 3 3 3 2 2 2 2 2 2 2 1 1 1 1 2 3 2 2 2 3 3 2 3 6 7 5 3 4 4 4 4 4 4 4 4 4 4 5 5 5 5 5 5
3 3 3 3 2 2 2 1 0 1 1 1 2 2 1 1 1 1 1 1 2 2 2 1 2 4 3 3 3 4 4 4 4 4 5 5 5 5 5 5 5 5 5 5
3 3 3 3 3 2 2 1 1 1 1 1 2 2 2 1 1 1 1 1 1 2 2 2 2 2 2 2 2 3 3 3 3 3 4 4 4 4 5 6 5 5 5 5
Wind_Direction
239 251 249 260 263 237 185 184 188 208 204 220 214 198 188 179 175 159 157 160 168 170 172 174 172 170 171 171 168 171 172 178 186 186 178 176 179 183 182 182 185 182 179 186
333 322 320 313 289 237 211 187 191 184 215 228 206 175 171 175 173 168 167 167 171 173 172 175 175 173 171 171 169 165 169 180 182 177 176 181 186 186 184 187 183 177 184 190
292 310 357 310 267 218 226 214 173 192 220 203 170 165 177 179 179 185 185 176 174 174 173 177 180 171 170 173 165 166 174 177 177 177 178 184 187 182 186 189 186 185 190 192
207 21 247 245 259 127 106 45 121 153 192 172 180 181 176 168 162 181 186 183 179 174 171 169 163 155 156 157 162 170 174 177 179 178 181 183 182 188 192 188 186 191 196 195
153 202 267 295 311 115 117 350 27 99 93 101 115 91 57 150 146 163 171 172 177 175 169 159 156 156 153 157 163 167 173 180 182 180 181 183 188 194 192 188 194 199 193 190
163 182 229 256 296 301 98 354 340 85 105 100 93 103 248 205 132 128 130 146 156 153 143 146 163 156 154 163 168 180 186 186 183 180 182 189 195 196 190 184 190 187 192 192
191 211 251 274 309 20 92 243 293 91 130 131 150 193 210 158 124 130 127 129 135 139 145 158 158 152 158 169 184 190 182 179 181 182 185 187 187 183 176 176 173 180 189 200
171 194 248 309 15 95 218 243 18 93 131 136 148 139 119 129 131 126 122 123 129 138 155 159 152 149 158 185 196 180 173 176 180 182 184 177 169 174 171 168 173 185 192 208
189 213 249 304 151 216 163 96 81 105 131 143 119 118 125 136 135 136 136 132 131 149 158 161 162 159 167 191 181 172 175 182 180 178 179 172 170 175 174 175 183 188 194 211
353 285 316 345 357 351 23 30 342 105 119 114 121 137 126 132 140 142 143 142 141 152 157 165 173 172 183 183 172 167 174 179 178 176 179 178 177 178 180 187 189 192 200 211
298 289 339 351 348 341 351 10 25 24 84 135 137 144 143 143 156 161 155 154 149 158 167 173 174 175 186 176 163 165 172 176 178 177 175 173 175 187 195 204 199 195 201 201
239 248 240 277 295 330 349 339 335 355 11 82 147 154 152 160 172 159 153 144 142 157 170 177 178 182 186 183 170 165 170 176 176 173 172 169 167 163 327 204 211 204 201 199
231 251 252 270 297 316 315 307 304 264 169 132 156 151 156 168 171 157 155 151 160 170 177 178 181 191 191 186 177 172 175 177 175 175 178 178 179 175 183 336 5 208 215 210
257 282 301 290 290 301 312 310 321 352 49 105 155 146 148 149 151 154 173 183 174 165 167 164 158 187 210 197 182 176 177 180 178 182 185 187 190 189 185 187 202 252 259 216
262 241 243 267 287 306 315 315 330 353 356 2 63 142 147 153 170 190 195 182 163 161 175 170 170 189 197 200 179 174 173 179 182 188 187 188 187 184 184 189 192 196 212 239
262 264 270 290 296 307 315 308 283 293 312 334 258 190 178 178 184 193 193 172 170 195 202 190 197 203 190 185 177 180 185 184 180 185 183 185 188 186 185 187 189 189 201 205
251 267 270 274 279 282 276 270 243 223 226 224 218 203 181 163 165 186 193 186 187 202 201 194 204 199 185 181 181 188 187 186 186 183 190 191 192 193 189 189 191 196 209 203
227 237 239 240 249 263 276 279 251 236 235 236 227 189 179 173 185 201 200 183 175 204 219 206 198 183 179 180 182 184 184 188 186 185 190 196 197 196 192 191 193 198 207 202
251 253 258 262 266 274 283 284 258 248 251 242 217 200 193 192 193 195 187 176 184 219 242 221 189 177 183 192 186 190 189 189 194 199 197 197 194 192 190 190 192 194 191 186
289 275 263 267 280 285 284 287 279 271 265 234 213 203 199 205 195 190 181 192 213 220 221 204 190 187 197 201 192 193 196 197 197 201 200 198 197 196 194 189 185 188 190 192
329 311 295 284 288 291 291 290 301 300 285 224 195 197 205 214 204 189 187 219 242 216 202 196 194 199 201 199 191 192 195 199 202 204 202 197 193 193 192 186 184 186 189 193
337 340 328 308 293 311 303 293 259 275 273 230 202 189 191 211 214 209 213 217 223 199 197 201 201 199 196 193 195 198 202 204 207 208 204 200 196 195 192 186 186 190 194 197
331 334 324 308 287 271 290 305 295 279 266 233 203 187 194 208 205 197 230 240 209 194 195 208 202 193 191 194 198 203 208 207 208 207 205 203 201 195 192 192 191 191 193 199
338 333 324 309 310 342 337 318 319 336 335 317 211 192 188 198 244 238 216 203 201 203 210 207 196 195 194 202 205 208 211 212 213 211 205 202 197 192 193 192 193 193 192 194
325 328 337 342 341 294 267 290 343 357 4 354 322 295 257 200 200 218 202 198 204 207 231 219 203 198 198 207 207 207 211 212 211 204 200 199 202 198 194 196 195 191 189 193
321 317 302 296 297 292 274 262 265 302 331 315 305 292 286 256 199 176 163 192 195 204 217 217 208 206 207 206 206 209 212 209 207 205 202 202 202 201 202 201 195 192 193 196
323 320 324 333 335 319 285 250 231 240 242 236 280 287 283 266 158 168 175 189 204 218 217 204 191 191 195 199 197 197 199 197 193 193 198 202 203 201 198 195 193 190 187 185
Height
1481 1476 1474 1474 1474 1473 1479 1485 1493 1489 1487 1480 1475 1474 1475 1477 1478 1479 1481 1483 1486 1489 1491 1493 1496 1497 1499 1502 1505 1508 1510 1512 1514 1516 1518 1520 1521 1522 1524 1525 1525 1526 1526 1527
1482 1474 1473 1474 1470 1468 1471 1473 1477 1478 1479 1471 1470 1471 1473 1474 1475 1476 1478 1479 1482 1485 1487 1490 1492 1494 1497 1499 1501 1505 1507 1509 1511 1513 1515 1517 1518 1519 1521 1521 1522 1523 1523 1524
1492 1480 1477 1483 1471 1468 1468 1467 1470 1477 1473 1468 1469 1470 1470 1471 1473 1474 1476 1477 1479 1481 1483 1485 1488 1491 1493 1496 1499 1502 1504 1506 1508 1510 1512 1513 1515 1516 1517 1518 1519 1520 1520 1521
1495 1490 1497 1480 1461 1459 1463 1466 1463 1464 1465 1464 1464 1465 1467 1468 1470 1472 1474 1476 1478 1479 1481 1483 1486 1489 1492 1494 1497 1499 1501 1503 1505 1507 1508 1510 1511 1512 1514 1515 1515 1516 1517 1518
1498 1498 1490 1473 1462 1461 1465 1470 1464 1464 1464 1464 1464 1465 1467 1468 1469 1470 1472 1474 1476 1478 1479 1481 1484 1487 1490 1492 1494 1496 1498 1500 1502 1503 1505 1506 1507 1509 1510 1511 1512 1513 1514 1514
1493 1495 1496 1479 1461 1456 1461 1475 1466 1464 1465 1465 1465 1472 1471 1468 1468 1470 1471 1473 1475 1477 1478 1480 1483 1485 1488 1490 1492 1493 1495 1497 1499 1500 1502 1503 1504 1506 1507 1508 1509 1510 1511 1511
1489 1492 1485 1469 1460 1458 1478 1480 1468 1465 1465 1465 1465 1467 1467 1466 1467 1469 1470 1472 1474 1475 1477 1479 1481 1484 1485 1487 1488 1490 1492 1494 1496 1497 1499 1500 1502 1503 1504 1505 1506 1507 1507 1508
1488 1492 1488 1466 1463 1469 1472 1467 1466 1465 1464 1464 1464 1464 1465 1465 1466 1467 1469 1471 1472 1474 1475 1478 1479 1481 1482 1484 1486 1488 1489 1491 1492 1494 1496 1497 1499 1499 1500 1502 1503 1503 1504 1505
1481 1482 1471 1467 1466 1466 1466 1465 1464 1463 1463 1463 1463 1463 1464 1465 1466 1467 1468 1469 1471 1472 1474 1475 1477 1478 1479 1481 1483 1485 1486 1488 1489 1491 1493 1494 1496 1497 1498 1498 1499 1500 1501 1501
1475 1471 1468 1466 1466 1465 1463 1462 1462 1462 1461 1461 1462 1462 1463 1464 1465 1466 1467 1468 1469 1471 1472 1473 1474 1476 1477 1479 1481 1482 1483 1485 1487 1488 1490 1492 1493 1494 1494 1495 1496 1496 1497 1498
1475 1471 1467 1465 1465 1464 1462 1460 1460 1460 1460 1460 1460 1461 1462 1462 1463 1464 1465 1467 1468 1469 1469 1470 1472 1473 1475 1477 1478 1480 1481 1482 1484 1486 1487 1489 1490 1491 1492 1493 1493 1493 1494 1495
1474 1469 1468 1466 1464 1463 1461 1460 1459 1458 1458 1458 1458 1459 1460 1461 1462 1463 1463 1465 1466 1466 1467 1468 1469 1470 1472 1474 1476 1476 1477 1479 1481 1482 1484 1485 1487 1488 1490 1491 1491 1491 1492 1492
1465 1465 1464 1463 1462 1461 1459 1458 1457 1456 1455 1455 1456 1457 1457 1458 1459 1460 1461 1462 1463 1464 1464 1465 1467 1467 1468 1471 1472 1473 1474 1476 1478 1479 1480 1482 1483 1484 1486 1487 1488 1488 1489 1489
1462 1462 1461 1460 1459 1458 1457 1456 1455 1454 1453 1453 1453 1454 1455 1456 1457 1457 1458 1459 1460 1460 1461 1462 1463 1465 1465 1467 1469 1470 1471 1473 1474 1476 1478 1479 1480 1481 1482 1483 1484 1485 1486 1486
1459 1459 1458 1457 1455 1454 1453 1453 1452 1451 1450 1450 1450 1451 1452 1453 1454 1454 1456 1457 1457 1457 1458 1459 1460 1461 1463 1465 1465 1466 1467 1469 1470 1472 1474 1476 1477 1478 1479 1480 1481 1481 1482 1483
1455 1454 1453 1453 1452 1450 1450 1449 1448 1448 1448 1448 1448 1448 1449 1450 1450 1452 1453 1453 1454 1454 1455 1456 1457 1458 1459 1461 1462 1463 1464 1465 1467 1468 1469 1471 1473 1474 1474 1475 1477 1477 1478 1479
1451 1450 1450 1449 1448 1448 1447 1446 1445 1444 1445 1445 1445 1445 1445 1446 1447 1448 1449 1450 1451 1452 1452 1453 1454 1455 1456 1457 1458 1459 1460 1462 1463 1464 1465 1467 1469 1470 1471 1472 1472 1474 1475 1476
1447 1447 1446 1446 1444 1444 1442 1441 1441 1441 1441 1441 1441 1441 1442 1442 1443 1444 1444 1446 1447 1448 1449 1450 1451 1451 1452 1453 1454 1455 1456 1458 1459 1460 1461 1463 1465 1466 1467 1468 1468 1469 1471 1472
1443 1443 1442 1442 1441 1440 1439 1438 1437 1438 1438 1438 1438 1437 1437 1438 1439 1440 1441 1442 1442 1443 1445 1446 1447 1448 1448 1449 1451 1452 1453 1454 1455 1456 1458 1459 1461 1461 1463 1463 1464 1465 1466 1468
1440 1439 1438 1438 1437 1436 1436 1435 1434 1434 1434 1435 1435 1434 1434 1435 1436 1436 1437 1438 1439 1440 1442 1443 1444 1444 1445 1446 1448 1449 1449 1450 1451 1452 1453 1454 1455 1456 1458 1459 1460 1461 1462 1464
1437 1437 1436 1435 1434 1434 1433 1432 1431 1431 1431 1431 1431 1431 1431 1432 1433 1433 1434 1435 1436 1437 1439 1440 1440 1441 1442 1443 1444 1445 1446 1446 1447 1448 1449 1449 1451 1452 1453 1455 1456 1457 1458 1460
1435 1434 1433 1432 1432 1431 1431 1430 1429 1429 1428 1428 1428 1428 1429 1430 1431 1431 1431 1432 1433 1435 1436 1436 1437 1438 1439 1440 1441 1441 1442 1442 1443 1443 1444 1445 1446 1448 1449 1451 1452 1453 1455 1456
1434 1432 1431 1430 1429 1428 1428 1427 1426 1425 1425 1425 1425 1425 1426 1427 1428 1429 1429 1430 1431 1431 1432 1433 1434 1435 1436 1436 1437 1437 1438 1438 1438 1439 1439 1441 1442 1443 1445 1447 1448 1449 1451 1452
1432 1430 1429 1428 1427 1426 1424 1424 1423 1423 1423 1422 1423 1423 1424 1424 1426 1426 1427 1427 1428 1429 1429 1430 1431 1431 1432 1433 1433 1434 1434 1434 1434 1435 1436 1437 1438 1439 1441 1442 1444 1445 1447 1448
1431 1429 1428 1427 1425 1424 1423 1423 1422 1422 1421 1421 1421 1421 1422 1422 1423 1423 1424 1424 1425 1426 1426 1427 1428 1428 1429 1430 1430 1430 1430 1430 1431 1432 1432 1433 1434 1436 1437 1438 1439 1441 1442 1444
1430 1428 1427 1426 1424 1423 1422 1422 1421 1420 1420 1420 1420 1420 1420 1420 1421 1421 1421 1422 1423 1423 1423 1424 1424 1425 1426 1426 1426 1427 1427 1427 1428 1428 1429 1430 1431 1432 1433 1434 1435 1437 1438 1439
1429 1427 1425 1424 1423 1422 1421 1421 1420 1419 1419 1419 1419 1419 1419 1418 1419 1419 1420 1420 1420 1420 1421 1421 1422 1422 1423 1423 1424 1424 1424 1425 1425 1425 1426 1427 1428 1428 1429 1430 1431 1433 1434 1435